TimeCST,TemperatureF,Dew PointF,Humidity,Sea Level PressureIn,VisibilityMPH,Wind Direction,Wind SpeedMPH,Gust SpeedMPH,PrecipitationIn,Events,Conditions,WindDirDegrees,DateUTC
12:15 AM,16.3,12.2,84,29.95,10.0,Calm,Calm,-,N/A,,Clear,0,2013-02-05 06:15:00
12:35 AM,16.5,12.6,84,29.94,10.0,Calm,Calm,-,N/A,,Clear,0,2013-02-05 06:35:00
12:55 AM,16.7,12.7,84,29.94,10.0,West,3.5,-,N/A,,Clear,270,2013-02-05 06:55:00
1:15 AM,16.3,10.9,79,29.94,10.0,West,3.5,-,N/A,,Clear,270,2013-02-05 07:15:00
1:35 AM,16.3,10.4,77,29.95,10.0,West,3.5,-,N/A,,Clear,270,2013-02-05 07:35:00
1:55 AM,15.8,9.5,76,29.94,10.0,Calm,Calm,-,N/A,,Clear,0,2013-02-05 07:55:00
2:15 AM,15.6,9.3,76,29.93,10.0,Calm,Calm,-,N/A,,Clear,0,2013-02-05 08:15:00
2:35 AM,15.1,9.9,80,29.92,10.0,Calm,Calm,-,N/A,,Clear,0,2013-02-05 08:35:00
2:55 AM,14.9,9.9,80,29.91,10.0,Calm,Calm,-,N/A,,Clear,0,2013-02-05 08:55:00
3:15 AM,14.9,10.4,82,29.92,10.0,Calm,Calm,-,N/A,,Clear,0,2013-02-05 09:15:00
3:35 AM,15.8,12.2,86,29.92,10.0,West,4.6,-,N/A,,Clear,270,2013-02-05 09:35:00
3:55 AM,16.7,12.2,82,29.91,10.0,West,4.6,-,N/A,,Clear,270,2013-02-05 09:55:00
4:15 AM,17.2,12.6,82,29.91,10.0,West,4.6,-,N/A,,Mostly Cloudy,270,2013-02-05 10:15:00
4:35 AM,17.6,12.9,82,29.91,10.0,West,4.6,-,N/A,,Overcast,270,2013-02-05 10:35:00
4:55 AM,18.1,13.8,83,29.92,10.0,West,3.5,-,N/A,,Overcast,270,2013-02-05 10:55:00
5:15 AM,18.5,14.4,84,29.91,10.0,Calm,Calm,-,N/A,,Overcast,0,2013-02-05 11:15:00
5:35 AM,19.4,15.8,86,29.90,7.0,Calm,Calm,-,N/A,Snow,Light Snow,0,2013-02-05 11:35:00
5:55 AM,20.1,16.7,87,29.88,10.0,West,4.6,-,N/A,,Overcast,270,2013-02-05 11:55:00
6:15 AM,20.3,16.7,86,29.89,10.0,Calm,Calm,-,N/A,,Overcast,0,2013-02-05 12:15:00
6:35 AM,20.7,17.2,87,29.88,10.0,West,3.5,-,N/A,,Overcast,270,2013-02-05 12:35:00
6:55 AM,21.2,17.8,87,29.88,10.0,West,6.9,-,N/A,,Overcast,270,2013-02-05 12:55:00
7:15 AM,21.9,18.5,87,29.88,10.0,West,5.8,-,N/A,,Overcast,270,2013-02-05 13:15:00
7:35 AM,22.1,19.2,89,29.88,7.0,West,8.1,-,N/A,,Overcast,270,2013-02-05 13:35:00
7:55 AM,23.0,20.3,89,29.88,7.0,WNW,8.1,-,N/A,,Overcast,300,2013-02-05 13:55:00
8:15 AM,23.9,20.8,88,29.86,7.0,WNW,10.4,-,N/A,,Mostly Cloudy,300,2013-02-05 14:15:00
8:35 AM,24.6,21.7,89,29.85,7.0,WSW,10.4,-,N/A,,Overcast,250,2013-02-05 14:35:00
8:55 AM,25.7,22.1,86,29.85,7.0,WSW,12.7,-,N/A,,Scattered Clouds,240,2013-02-05 14:55:00
9:15 AM,28.2,23.5,83,29.84,10.0,WSW,17.3,-,N/A,,Mostly Cloudy,240,2013-02-05 15:15:00
9:35 AM,28.9,23.9,81,29.84,10.0,SW,20.7,24.2,N/A,,Overcast,230,2013-02-05 15:35:00
9:55 AM,29.5,24.4,81,29.84,7.0,SW,18.4,23.0,N/A,,Overcast,230,2013-02-05 15:55:00
10:15 AM,29.8,24.4,80,29.83,7.0,SW,15.0,19.6,N/A,,Overcast,230,2013-02-05 16:15:00
10:35 AM,31.1,25.5,80,29.83,7.0,SW,15.0,19.6,N/A,,Mostly Cloudy,230,2013-02-05 16:35:00
10:55 AM,32.9,26.1,76,29.83,10.0,WSW,16.1,-,N/A,,Scattered Clouds,240,2013-02-05 16:55:00
11:15 AM,32.5,25.9,76,29.83,10.0,WSW,17.3,-,N/A,,Mostly Cloudy,240,2013-02-05 17:15:00
11:35 AM,32.5,26.4,78,29.83,10.0,WSW,15.0,21.9,N/A,,Overcast,250,2013-02-05 17:35:00
11:55 AM,32.4,27.0,80,29.82,7.0,WSW,12.7,18.4,N/A,,Overcast,250,2013-02-05 17:55:00
12:15 PM,32.9,27.3,80,29.81,7.0,West,11.5,18.4,N/A,,Overcast,260,2013-02-05 18:15:00
12:35 PM,33.1,27.5,80,29.82,7.0,WSW,15.0,-,N/A,,Overcast,250,2013-02-05 18:35:00
12:55 PM,33.1,27.5,80,29.82,7.0,WSW,12.7,-,N/A,,Overcast,250,2013-02-05 18:55:00
1:15 PM,34.3,28.6,79,29.82,7.0,West,13.8,19.6,N/A,,Overcast,270,2013-02-05 19:15:00
1:35 PM,34.5,28.6,79,29.82,7.0,West,10.4,-,N/A,,Overcast,270,2013-02-05 19:35:00
1:55 PM,34.7,28.2,77,29.82,7.0,West,13.8,23.0,N/A,,Overcast,280,2013-02-05 19:55:00
2:15 PM,34.3,28.4,79,29.83,7.0,West,15.0,20.7,N/A,,Overcast,270,2013-02-05 20:15:00
2:35 PM,34.3,28.4,79,29.84,7.0,WNW,12.7,-,N/A,,Overcast,290,2013-02-05 20:35:00
2:55 PM,34.3,28.4,79,29.85,7.0,West,13.8,-,N/A,,Overcast,280,2013-02-05 20:55:00
3:15 PM,34.7,29.1,80,29.86,4.0,WNW,11.5,19.6,N/A,Snow,Light Snow,290,2013-02-05 21:15:00
3:35 PM,34.3,30.2,85,29.87,5.0,WNW,12.7,17.3,N/A,,Overcast,290,2013-02-05 21:35:00
3:55 PM,34.3,29.5,82,29.88,7.0,WNW,15.0,20.7,N/A,,Overcast,290,2013-02-05 21:55:00
4:15 PM,34.3,29.7,83,29.89,7.0,WNW,12.7,-,N/A,,Overcast,300,2013-02-05 22:15:00
4:35 PM,33.4,29.3,85,29.91,7.0,WNW,15.0,24.2,N/A,,Overcast,300,2013-02-05 22:35:00
4:55 PM,33.1,29.3,86,29.92,7.0,WNW,16.1,20.7,N/A,,Overcast,300,2013-02-05 22:55:00
5:15 PM,32.7,28.6,85,29.93,7.0,WNW,20.7,29.9,N/A,,Overcast,300,2013-02-05 23:15:00
5:35 PM,32.0,28.2,86,29.94,10.0,WNW,18.4,-,N/A,,Overcast,300,2013-02-05 23:35:00
5:55 PM,32.0,27.1,82,29.96,10.0,WNW,19.6,24.2,N/A,,Overcast,300,2013-02-05 23:55:00
6:15 PM,32.0,26.8,81,29.98,10.0,WNW,16.1,19.6,N/A,,Overcast,300,2013-02-06 00:15:00
6:35 PM,32.0,27.1,82,29.98,10.0,WNW,11.5,-,N/A,,Overcast,290,2013-02-06 00:35:00
6:55 PM,32.0,27.3,83,29.99,10.0,WNW,11.5,-,N/A,,Overcast,300,2013-02-06 00:55:00
7:15 PM,32.2,27.5,83,30.00,10.0,WNW,6.9,-,N/A,,Overcast,300,2013-02-06 01:15:00
7:35 PM,32.0,28.4,87,30.00,10.0,WNW,4.6,-,N/A,,Overcast,300,2013-02-06 01:35:00
7:55 PM,32.0,27.9,85,30.01,10.0,WNW,5.8,-,N/A,,Overcast,300,2013-02-06 01:55:00
8:15 PM,32.2,27.9,84,30.01,10.0,WNW,4.6,-,N/A,,Overcast,300,2013-02-06 02:15:00
8:35 PM,32.0,28.2,86,30.02,10.0,WNW,4.6,-,N/A,,Overcast,300,2013-02-06 02:35:00
8:55 PM,32.0,28.4,87,30.03,7.0,Calm,Calm,-,N/A,,Overcast,0,2013-02-06 02:55:00
9:15 PM,32.0,28.4,87,30.04,7.0,West,4.6,-,N/A,,Overcast,280,2013-02-06 03:15:00
9:35 PM,32.0,28.9,88,30.04,7.0,Calm,Calm,-,N/A,,Overcast,0,2013-02-06 03:35:00
9:55 PM,32.4,27.3,82,30.05,10.0,WNW,10.4,-,N/A,,Overcast,300,2013-02-06 03:55:00
10:15 PM,32.5,27.1,80,30.05,10.0,WNW,6.9,-,N/A,,Overcast,300,2013-02-06 04:15:00
10:35 PM,32.2,27.5,83,30.06,10.0,WNW,6.9,-,N/A,,Overcast,300,2013-02-06 04:35:00
10:55 PM,32.0,26.8,81,30.07,10.0,WNW,9.2,-,N/A,,Overcast,300,2013-02-06 04:55:00
11:15 PM,32.0,25.7,78,30.08,10.0,WNW,5.8,-,N/A,,Overcast,290,2013-02-06 05:15:00
11:35 PM,32.0,25.3,76,30.09,10.0,WNW,5.8,-,N/A,,Overcast,300,2013-02-06 05:35:00
11:55 PM,32.0,24.8,75,30.10,10.0,North,6.9,-,N/A,,Overcast,360,2013-02-06 05:55:00